Find Local Weather

World > North America > United States > Minnesota

Rochester, Minnesota Regional Weather

Lat: 44.01N, Lon: 92.48W
Wx Zone: MNZ087
Warning FLW WEATHER ALERT - (More Info. Click Here) Warning
Feedback
Expires:201811152100;;355120
ASUS43 KMPX 152010
RWRMN 
WEATHER ROUNDUP FOR MINNESOTA
NATIONAL WEATHER SERVICE TWIN CITIES/CHANHASSEN MN
200 PM CST THU NOV 15 2018


NOTE: "FAIR" INDICATES FEW OR NO CLOUDS BELOW 12,000 FEET WITH NO
SIGNIFICANT WEATHER AND/OR OBSTRUCTIONS TO VISIBILITY. N/A MEANS
CURRENT SKY AND/OR WEATHER CONDITIONS ARE NOT AVAILABLE.


MNZ078>079-086>088-094>096-152100-
   Southeast Minnesota   
  
CITY           SKY/WX    TMP DP  RH WIND       PRES   REMARKS
ROCHESTER      FAIR      41  22  46 S20G31    29.81F                  
RED WING       FAIR      43  19  39 SW14G21   29.79F                  
STANTON        FAIR      43  27  52 SW14G22   29.77F                  
DODGE CENTER   FAIR      41  25  52 S18G24    29.78F                  
WINONA         FAIR      43  18  36 S8        29.84F                  
AUSTIN         FAIR      43  23  45 S18G24    29.81F                  
PRESTON        FAIR      40  17  38 S20G26    29.82F                  
$$
ABBREVIATIONS USED IN REMARKS
   TC - TEMPERATURES IN CELSIUS
  WCI - WIND CHILL INDEX
   HX - HEAT INDEX
  VSB - VISIBILITY 
$$
  

SKY/WX - Weather  TMP - Temperature  DP - Dew Point  RH - Relative Humidity
WIND - Wind Direction/Speed PRES - Barometric Pressure